CW8386 Weather Reports


Display with metric or nautical units.
time (UTC)temp
F
wind
direction
speed
MPH
gust
MPH
rain 1hr
in
rain 24hr
in
rain mn
in
humidity
%
barometer
mb
20260901111030 71 360 6.0 20.0 0.00 0.00 0.00 47 1014.1
20260901110530 71 360 8.0 20.0 0.00 0.00 0.00 47 1013.9
20260901110032 71 360 9.0 25.0 0.00 0.00 0.00 47 1013.9
20260901105554 71 360 8.0 25.0 0.00 0.00 0.00 47 1013.8
20260901105033 71 360 6.0 22.0 0.00 0.00 0.00 47 1014.0
20260901104534 71 360 7.0 22.0 0.00 0.00 0.00 47 1014.1
20260901104036 71 360 5.0 19.0 0.00 0.00 0.00 47 1014.2
20260901103557 71 360 8.0 19.0 0.00 0.00 0.00 47 1014.4
20260901103118 71 360 3.0 28.0 0.00 0.00 0.00 47 1014.2
20260901102558 71 360 10.0 28.0 0.00 0.00 0.00 47 1014.3
20260901102038 71 360 6.0 20.0 0.00 0.00 0.00 47 1014.5
20260901101539 71 360 8.0 19.0 0.00 0.00 0.00 47 1014.4
20260901101101 71 360 8.0 19.0 0.00 0.00 0.00 47 1014.5
20260901100620 71 360 11.0 22.0 0.00 0.00 0.00 47 1014.6
20260901100039 72 360 8.0 22.0 0.00 0.00 0.00 47 1014.7
20260901095540 72 360 9.0 27.0 0.00 0.00 0.00 47 1014.7
20260901095122 72 360 12.0 27.0 0.00 0.00 0.00 47 1014.8
20260901094542 72 360 9.0 23.0 0.00 0.00 0.00 47 1014.9
20260901094025 72 360 6.0 23.0 0.00 0.00 0.00 47 1015.0
20260901093524 72 360 4.0 21.0 0.00 0.00 0.00 48 1015.0
20260901093027 72 360 8.0 21.0 0.00 0.00 0.00 48 1015.1
20260901092608 72 360 6.0 18.0 0.00 0.00 0.00 48 1015.1
20260901091547 72 360 5.0 14.0 0.00 0.00 0.00 48 1015.2
20260901090605 73 360 4.0 18.0 0.00 0.00 0.00 48 1015.4
20260901090025 73 360 5.0 17.0 0.00 0.00 0.00 48 1015.6
20260901085525 73 360 7.0 17.0 0.00 0.00 0.00 49 1015.7
20260901085027 73 360 4.0 6.0 0.00 0.00 0.00 48 1015.7
20260901084550 73 360 0.0 12.0 0.00 0.00 0.00 48 1015.8
20260901084031 73 360 0.0 12.0 0.00 0.00 0.00 48 1015.1
20260901083531 71 360 4.0 18.0 0.00 0.00 0.00 49 1015.3
20260901083032 70 360 6.0 18.0 0.00 0.00 0.00 45 1015.4
20260901082533 68 360 5.0 13.0 0.00 0.00 0.00 38 1015.3
20260901082055 67 360 6.0 7.0 0.00 0.00 0.00 38 1015.5
20260901081539 67 360 3.0 8.0 0.00 0.00 0.00 37 1015.4
20260901081058 66 360 4.0 8.0 0.00 0.00 0.00 37 1015.6
20260901080537 66 360 1.0 5.0 0.00 0.00 0.00 36 1015.7
20260901075538 65 360 0.0 12.0 0.00 0.00 0.00 35 1015.8
20260901075041 64 360 8.0 12.0 0.00 0.00 0.00 36 1015.8
20260901074623 64 360 0.0 6.0 0.00 0.00 0.00 35 1015.8
20260901074104 64 360 4.0 5.0 0.00 0.00 0.00 35 1015.8
20260901073603 64 360 0.0 3.0 0.00 0.00 0.00 36 1015.9
20260901073104 64 360 1.0 4.0 0.00 0.00 0.00 36 1015.8
20260901072524 64 360 3.0 4.0 0.00 0.00 0.00 34 1015.8
20260901072024 64 360 0.0 3.0 0.00 0.00 0.00 35 1015.9
20260901071526 64 360 1.0 6.0 0.00 0.00 0.00 35 1015.9
20260901071049 64 360 2.0 6.0 0.00 0.00 0.00 34 1015.9
20260901070529 64 360 4.0 5.0 0.00 0.00 0.00 35 1015.8
20260901070051 64 360 2.0 5.0 0.00 0.00 0.00 34 1015.8
20260901065530 65 360 1.0 3.0 0.00 0.00 0.00 33 1015.8
20260901065032 65 360 0.0 0.0 0.00 0.00 0.00 33 1016.0
20260901064533 65 360 0.0 1.0 0.00 0.00 0.00 34 1016.1
20260901064057 65 360 0.0 2.0 0.00 0.00 0.00 33 1016.0
20260901063555 65 360 1.0 4.0 0.00 0.00 0.00 32 1016.0
20260901063036 65 360 1.0 5.0 0.00 0.00 0.00 32 1016.1
20260901062558 65 360 0.0 4.0 0.00 0.00 0.00 32 1016.2
20260901062059 66 360 0.0 0.0 0.00 0.00 0.00 31 1016.1
20260901061559 67 360 0.0 0.0 0.00 0.00 0.00 31 1016.1
20260901060601 67 360 0.0 2.0 0.00 0.00 0.00 29 1016.1
20260901060041 67 360 0.0 2.0 0.00 0.00 0.00 29 1016.1
20260901055523 67 360 0.0 2.0 0.00 0.00 0.00 30 1016.1
20260901055044 67 360 1.0 2.0 0.00 0.00 0.00 30 1016.2
20260901054524 67 360 0.0 3.0 0.00 0.00 0.00 30 1016.1
20260901054047 66 360 0.0 4.0 0.00 0.00 0.00 31 1016.2
20260901053527 67 360 2.0 4.0 0.00 0.00 0.00 31 1016.2
20260901053033 67 360 2.0 6.0 0.00 0.00 0.00 31 1016.2
20260901052536 66 360 1.0 6.0 0.00 0.00 0.00 31 1016.2
20260901052036 66 360 0.0 3.0 0.00 0.00 0.00 31 1016.3
20260901051538 66 360 1.0 3.0 0.00 0.00 0.00 31 1016.3
20260901051121 66 360 0.0 6.0 0.00 0.00 0.00 32 1016.4
20260901050600 66 360 4.0 6.0 0.00 0.00 0.00 33 1016.5
20260901050121 66 360 0.0 6.0 0.00 0.00 0.00 31 1016.5
20260901045601 66 360 5.0 6.0 0.00 0.00 0.00 33 1016.5
20260901045038 67 360 3.0 7.0 0.00 0.00 0.00 32 1016.8
20260901044600 67 360 1.0 7.0 0.00 0.00 0.00 32 1016.6
20260901044102 68 360 2.0 5.0 0.00 0.00 0.00 27 1016.5
20260901043522 68 360 0.0 6.0 0.00 0.00 0.00 27 1016.3
20260901043023 68 360 3.0 6.0 0.00 0.00 0.00 27 1016.2
20260901042524 68 360 1.0 5.0 0.00 0.00 0.00 27 1016.4
20260901042025 68 360 0.0 5.0 0.00 0.00 0.00 27 1016.4
20260901041527 68 360 4.0 5.0 0.00 0.00 0.00 26 1016.4
20260901041029 69 360 3.0 10.0 0.00 0.00 0.00 25 1016.4
20260901040549 68 360 5.0 10.0 0.00 0.00 0.00 26 1016.4
20260901040029 67 360 6.0 9.0 0.00 0.00 0.00 27 1016.4
20260901035529 67 360 1.0 5.0 0.00 0.00 0.00 29 1016.4
20260901035111 66 360 2.0 7.0 0.00 0.00 0.00 28 1016.4
20260901034611 66 360 4.0 7.0 0.00 0.00 0.00 29 1016.3
20260901034052 66 360 2.0 7.0 0.00 0.00 0.00 29 1016.1
20260901033551 66 360 4.0 7.0 0.00 0.00 0.00 29 1016.1
20260901033030 66 360 4.0 7.0 0.00 0.00 0.00 29 1016.0
20260901032554 66 360 6.0 7.0 0.00 0.00 0.00 29 1016.0
20260901031555 66 360 4.0 9.0 0.00 0.00 0.00 29 1016.0
20260901031035 67 360 6.0 9.0 0.00 0.00 0.00 28 1015.9
20260901030536 68 360 1.0 7.0 0.00 0.00 0.00 29 1015.9
20260901030038 67 360 5.0 9.0 0.00 0.00 0.00 28 1015.8
20260901025523 68 360 7.0 9.0 0.00 0.00 0.00 29 1015.7
20260901025045 70 360 0.0 1.0 0.00 0.00 0.00 27 1015.5
20260901024524 70 360 0.0 2.0 0.00 0.00 0.00 27 1015.5
20260901024047 70 360 0.0 3.0 0.00 0.00 0.00 28 1015.3
20260901023608 70 360 2.0 4.0 0.00 0.00 0.00 28 1015.2
20260901023126 71 360 2.0 4.0 0.00 0.00 0.00 27 1015.2
20260901022622 73 360 3.0 4.0 0.00 0.00 0.00 26 1015.1
20260901022042 74 360 0.0 4.0 0.00 0.00 0.00 24 1015.1
20260901021604 76 360 0.0 0.0 0.00 0.00 0.00 25 1015.0
20260901021045 76 360 0.0 0.0 0.00 0.00 0.00 25 1015.1
20260901020545 77 360 0.0 0.0 0.00 0.00 0.00 24 1015.1
20260901020046 78 360 0.0 0.0 0.00 0.00 0.00 23 1015.1
20260901015607 79 360 0.0 0.0 0.00 0.00 0.00 23 1015.2
20260901015026 80 360 0.0 3.0 0.00 0.00 0.00 22 1015.1
20260901014532 81 360 0.0 3.0 0.00 0.00 0.00 22 1015.1
20260901014034 81 360 1.0 3.0 0.00 0.00 0.00 22 1015.1
20260901013615 82 360 0.0 0.0 0.00 0.00 0.00 21 1015.0
20260901013110 83 360 0.0 0.0 0.00 0.00 0.00 21 1015.0
20260901012610 83 360 0.0 0.0 0.00 0.00 0.00 21 1015.0
20260901012029 83 360 0.0 4.0 0.00 0.00 0.00 21 1015.0
20260901011534 83 360 0.0 4.0 0.00 0.00 0.00 21 1015.0
20260901011036 83 360 0.0 0.0 0.00 0.00 0.00 21 1015.1
20260901010557 83 360 0.0 0.0 0.00 0.00 0.00 22 1015.0
20260901010058 84 360 0.0 0.0 0.00 0.00 0.00 23 1015.0
20260901005537 84 360 0.0 0.0 0.00 0.00 0.00 21 1015.1
20260901005119 84 360 0.0 0.0 0.00 0.00 0.00 22 1015.1
20260901004539 84 360 0.0 0.0 0.00 0.00 0.00 22 1015.0
20260901004102 84 360 0.0 0.0 0.00 0.00 0.00 23 1015.0
20260901003602 85 360 0.0 0.0 0.00 0.00 0.00 22 1015.0
20260901003103 85 360 0.0 0.0 0.00 0.00 0.00 21 1014.9
20260901002623 85 360 0.0 0.0 0.00 0.00 0.00 22 1014.9
20260901002103 85 360 0.0 0.0 0.00 0.00 0.00 21 1015.0
20260901001523 85 360 0.0 0.0 0.00 0.00 0.00 21 1014.9
20260901001026 85 360 0.0 0.0 0.00 0.00 0.00 21 1014.9
20260901000049 85 360 0.0 0.0 0.00 0.00 0.00 21 1014.8
20260831235529 85 360 0.0 0.0 0.00 0.00 0.00 21 1014.8
20260831235029 85 360 0.0 4.0 0.00 0.00 0.00 21 1014.9
20260831234031 86 360 0.0 0.0 0.00 0.00 0.00 21 1014.9
20260831233531 85 360 0.0 3.0 0.00 0.00 0.00 21 1015.0
20260831233032 85 360 0.0 5.0 0.00 0.00 0.00 21 1014.9
20260831232554 85 360 0.0 5.0 0.00 0.00 0.00 21 1014.9
20260831232034 85 360 0.0 10.0 0.00 0.00 0.00 21 1015.0
20260831231536 84 360 4.0 10.0 0.00 0.00 0.00 21 1015.1
20260831231039 84 360 0.0 4.0 0.00 0.00 0.00 22 1015.1
20260831225537 85 360 0.0 9.0 0.00 0.00 0.00 22 1015.1
20260831225119 85 360 3.0 9.0 0.00 0.00 0.00 21 1015.2
20260831224115 85 360 1.0 10.0 0.00 0.00 0.00 21 1015.4
20260831223554 85 360 0.0 11.0 0.00 0.00 0.00 21 1015.3
20260831223034 85 360 6.0 11.0 0.00 0.00 0.00 21 1015.4
20260831222557 85 360 3.0 9.0 0.00 0.00 0.00 21 1015.5
20260831222118 85 360 1.0 8.0 0.00 0.00 0.00 21 1015.5
20260831221537 85 360 2.0 9.0 0.00 0.00 0.00 21 1015.5
20260831221039 85 360 1.0 10.0 0.00 0.00 0.00 22 1015.5
20260831220538 85 360 3.0 10.0 0.00 0.00 0.00 21 1015.7
20260831220039 85 360 1.0 9.0 0.00 0.00 0.00 21 1015.8
20260831215540 84 360 0.0 11.0 0.00 0.00 0.00 21 1015.8
20260831215041 85 360 4.0 11.0 0.00 0.00 0.00 21 1016.0
20260831214542 84 360 0.0 11.0 0.00 0.00 0.00 21 1016.1
20260831214125 84 360 0.0 4.0 0.00 0.00 0.00 21 1016.1
20260831213625 84 360 2.0 10.0 0.00 0.00 0.00 20 1016.1
20260831213103 84 360 5.0 10.0 0.00 0.00 0.00 22 1016.1
20260831212523 85 360 3.0 10.0 0.00 0.00 0.00 22 1016.2
20260831212025 84 360 4.0 10.0 0.00 0.00 0.00 21 1016.3
20260831211607 84 360 0.0 10.0 0.00 0.00 0.00 21 1016.5
20260831211046 84 360 3.0 12.0 0.00 0.00 0.00 23 1016.6
20260831210525 84 360 6.0 13.0 0.00 0.00 0.00 22 1016.6
20260831210025 84 360 2.0 20.0 0.00 0.00 0.00 22 1016.8
20260831205527 84 360 10.0 20.0 0.00 0.00 0.00 22 1016.9
20260831205028 84 360 0.0 16.0 0.00 0.00 0.00 21 1016.9
20260831204533 84 360 5.0 19.0 0.00 0.00 0.00 21 1017.0
20260831203529 83 360 10.0 23.0 0.00 0.00 0.00 22 1017.0
20260831203050 83 360 11.0 23.0 0.00 0.00 0.00 22 1017.1
20260831202550 83 360 7.0 15.0 0.00 0.00 0.00 22 1017.1
20260831202111 82 360 0.0 11.0 0.00 0.00 0.00 21 1017.1
20260831201611 82 360 0.0 12.0 0.00 0.00 0.00 20 1017.2
20260831201052 83 360 5.0 16.0 0.00 0.00 0.00 21 1017.3
20260831200051 83 360 5.0 13.0 0.00 0.00 0.00 21 1017.3
20260831195552 82 360 4.0 12.0 0.00 0.00 0.00 21 1017.4
20260831195114 82 360 5.0 7.0 0.00 0.00 0.00 21 1017.3
20260831194532 81 360 3.0 7.0 0.00 0.00 0.00 21 1017.6
20260831194054 81 360 2.0 10.0 0.00 0.00 0.00 21 1017.7
20260831193533 81 360 2.0 10.0 0.00 0.00 0.00 21 1017.8
20260831193034 81 360 0.0 6.0 0.00 0.00 0.00 21 1017.8
20260831192535 80 360 3.0 6.0 0.00 0.00 0.00 21 1017.9
20260831192057 80 360 0.0 5.0 0.00 0.00 0.00 21 1018.0
20260831191556 80 360 0.0 5.0 0.00 0.00 0.00 21 1018.1
20260831191115 80 360 0.0 6.0 0.00 0.00 0.00 21 1018.2
20260831190554 79 360 2.0 6.0 0.00 0.00 0.00 21 1018.3
20260831190115 80 360 2.0 6.0 0.00 0.00 0.00 22 1018.3
20260831185534 80 360 0.0 1.0 0.00 0.00 0.00 21 1018.4
20260831185055 79 360 0.0 1.0 0.00 0.00 0.00 21 1018.4
20260831184535 79 360 0.0 0.0 0.00 0.00 0.00 21 1018.5
20260831184118 78 360 0.0 0.0 0.00 0.00 0.00 21 1018.7
20260831183536 77 360 0.0 4.0 0.00 0.00 0.00 21 1018.8
20260831183058 77 360 0.0 5.0 0.00 0.00 0.00 21 1018.9
20260831182558 77 360 2.0 5.0 0.00 0.00 0.00 22 1019.0
20260831182038 77 360 1.0 5.0 0.00 0.00 0.00 22 1019.1
20260831181523 76 360 0.0 6.0 0.00 0.00 0.00 23 1019.2
20260831181024 76 360 1.0 5.0 0.00 0.00 0.00 23 1018.5
20260831180526 75 360 0.0 6.0 0.00 0.00 0.00 22 1018.5
20260831180047 76 360 1.0 6.0 0.00 0.00 0.00 21 1018.6
20260831175528 75 360 1.0 5.0 0.00 0.00 0.00 22 1018.6
20260831175029 75 360 0.0 0.0 0.00 0.00 0.00 22 1018.6
20260831174529 75 360 0.0 0.0 0.00 0.00 0.00 23 1018.7
20260831174033 75 360 0.0 0.0 0.00 0.00 0.00 22 1018.7
20260831173532 75 360 0.0 1.0 0.00 0.00 0.00 22 1018.7
20260831173053 74 360 0.0 1.0 0.00 0.00 0.00 23 1018.7
20260831172534 74 360 0.0 0.0 0.00 0.00 0.00 24 1018.7
20260831171536 74 360 0.0 0.0 0.00 0.00 0.00 23 1018.8
20260831171038 74 360 0.0 0.0 0.00 0.00 0.00 24 1018.9
20260831170619 73 360 0.0 0.0 0.00 0.00 0.00 24 1019.0
20260831170038 74 360 0.0 0.0 0.00 0.00 0.00 24 1019.1
20260831165540 75 360 0.0 0.0 0.00 0.00 0.00 25 1019.0
20260831165104 74 360 0.0 0.0 0.00 0.00 0.00 25 1019.1
20260831164523 73 360 0.0 0.0 0.00 0.00 0.00 26 1019.1
20260831164029 72 360 0.0 0.0 0.00 0.00 0.00 27 1019.2
20260831163550 71 360 0.0 0.0 0.00 0.00 0.00 27 1019.2
20260831163051 70 360 0.0 0.0 0.00 0.00 0.00 27 1019.2
20260831162530 70 360 0.0 0.0 0.00 0.00 0.00 27 1019.2
20260831162031 69 360 0.0 0.0 0.00 0.00 0.00 29 1019.2
20260831161614 68 360 0.0 0.0 0.00 0.00 0.00 28 1019.2
20260831161035 68 360 0.0 0.0 0.00 0.00 0.00 29 1020.1
20260831160536 68 360 0.0 0.0 0.00 0.00 0.00 30 1019.9
20260831160119 67 360 0.0 0.0 0.00 0.00 0.00 32 1019.9
20260831155538 66 360 0.0 0.0 0.00 0.00 0.00 31 1019.9
20260831155059 66 360 0.0 0.0 0.00 0.00 0.00 32 1019.9
20260831154538 66 360 0.0 0.0 0.00 0.00 0.00 32 1019.9
20260831154100 64 360 0.0 0.0 0.00 0.00 0.00 33 1019.9
20260831153600 64 360 0.0 0.0 0.00 0.00 0.00 33 1020.1
20260831153101 63 360 0.0 0.0 0.00 0.00 0.00 34 1020.1
20260831152622 63 360 0.0 0.0 0.00 0.00 0.00 34 1020.2
20260831152122 62 360 0.0 1.0 0.00 0.00 0.00 35 1020.1
20260831151541 61 360 0.0 1.0 0.00 0.00 0.00 37 1020.1
20260831151103 60 360 0.0 0.0 0.00 0.00 0.00 37 1020.2
20260831150542 60 360 0.0 0.0 0.00 0.00 0.00 39 1020.3
20260831150023 59 360 0.0 0.0 0.00 0.00 0.00 40 1020.3
20260831145545 59 360 0.0 0.0 0.00 0.00 0.00 41 1020.2
20260831145105 58 360 0.0 0.0 0.00 0.00 0.00 42 1020.1
20260831144525 57 360 0.0 0.0 0.00 0.00 0.00 43 1020.2
20260831144048 57 360 0.0 0.0 0.00 0.00 0.00 43 1020.2
20260831143047 56 360 0.0 0.0 0.00 0.00 0.00 43 1020.1
20260831142527 55 360 0.0 0.0 0.00 0.00 0.00 45 1020.0
20260831142051 54 360 0.0 0.0 0.00 0.00 0.00 45 1020.0
20260831141531 54 360 0.0 0.0 0.00 0.00 0.00 46 1019.9
20260831141053 54 360 0.0 0.0 0.00 0.00 0.00 46 1019.8
20260831140533 54 360 0.0 0.0 0.00 0.00 0.00 46 1019.7
20260831140033 53 360 0.0 0.0 0.00 0.00 0.00 47 1019.7
20260831135033 50 360 0.0 0.0 0.00 0.00 0.00 52 1019.7
20260831134535 49 360 0.0 0.0 0.00 0.00 0.00 53 1019.6
20260831134038 48 360 0.0 0.0 0.00 0.00 0.00 52 1019.5
20260831133618 47 360 0.0 0.0 0.00 0.00 0.00 53 1019.5
20260831133038 46 360 0.0 0.0 0.00 0.00 0.00 56 1019.4
20260831132539 44 360 0.0 0.0 0.00 0.00 0.00 57 1019.4
20260831132040 44 360 0.0 1.0 0.00 0.00 0.00 58 1019.3
20260831131622 43 360 0.0 4.0 0.00 0.00 0.00 58 1019.2
20260831131103 42 360 2.0 4.0 0.00 0.00 0.00 60 1019.1
20260831130622 42 360 0.0 0.0 0.00 0.00 0.00 60 1019.1
20260831130023 42 360 0.0 3.0 0.00 0.00 0.00 59 1019.0
20260831125604 43 360 2.0 3.0 0.00 0.00 0.00 58 1018.9
20260831125044 43 360 0.0 0.0 0.00 0.00 0.00 59 1019.0
20260831124605 44 360 0.0 0.0 0.00 0.00 0.00 58 1018.9
20260831124024 44 360 0.0 0.0 0.00 0.00 0.00 59 1018.7
20260831123524 43 360 0.0 3.0 0.00 0.00 0.00 59 1018.8
20260831123046 43 360 0.0 5.0 0.00 0.00 0.00 57 1018.6
20260831122024 43 360 2.0 6.0 0.00 0.00 0.00 59 1018.6
20260831121047 43 360 1.0 2.0 0.00 0.00 0.00 57 1018.4
20260831115524 44 360 0.0 0.0 0.00 0.00 0.00 55 1018.4
20260831115045 44 360 0.0 0.0 0.00 0.00 0.00 55 1018.4
20260831114546 44 360 0.0 2.0 0.00 0.00 0.00 54 1018.1
20260831114026 44 360 1.0 2.0 0.00 0.00 0.00 54 1018.0
20260831113526 44 360 0.0 5.0 0.00 0.00 0.00 55 1017.9
20260831113048 43 360 2.0 6.0 0.00 0.00 0.00 56 1017.7
20260831112528 43 360 4.0 6.0 0.00 0.00 0.00 57 1017.7
20260831112110 42 360 2.0 7.0 0.00 0.00 0.00 58 1017.6
20260831111549 42 360 0.0 8.0 0.00 0.00 0.00 58 1017.6